TimeCDT,TemperatureF,Dew PointF,Humidity,Sea Level PressureIn,VisibilityMPH,Wind Direction,Wind SpeedMPH,Gust SpeedMPH,PrecipitationIn,Events,Conditions,WindDirDegrees,DateUTC
12:53 AM,51.1,45.0,80,30.03,10.0,Calm,Calm,-,N/A,,Clear,0,2013-05-07 05:53:00
1:53 AM,50.0,46.0,86,30.03,10.0,Calm,Calm,-,N/A,,Clear,0,2013-05-07 06:53:00
3:53 AM,46.9,44.1,90,30.03,10.0,Calm,Calm,-,N/A,,Clear,0,2013-05-07 08:53:00
4:53 AM,45.0,43.0,93,30.04,10.0,Calm,Calm,-,N/A,,Clear,0,2013-05-07 09:53:00
5:53 AM,44.1,42.1,93,30.05,4.0,Calm,Calm,-,N/A,,Clear,0,2013-05-07 10:53:00
6:53 AM,50.0,46.0,86,30.06,10.0,Calm,Calm,-,N/A,,Clear,0,2013-05-07 11:53:00
7:53 AM,57.0,48.0,72,30.06,10.0,Calm,Calm,-,N/A,,Clear,0,2013-05-07 12:53:00
8:53 AM,62.1,48.0,60,30.06,10.0,Calm,Calm,-,N/A,,Clear,0,2013-05-07 13:53:00
9:53 AM,66.0,48.0,52,30.07,10.0,Calm,Calm,-,N/A,,Clear,0,2013-05-07 14:53:00
10:53 AM,72.0,46.9,41,30.06,10.0,NW,3.5,-,N/A,,Clear,320,2013-05-07 15:53:00
11:53 AM,75.0,45.0,34,30.05,10.0,West,3.5,-,N/A,,Clear,260,2013-05-07 16:53:00
12:53 PM,79.0,41.0,26,30.03,10.0,Calm,Calm,-,N/A,,Clear,0,2013-05-07 17:53:00
1:53 PM,80.1,35.1,20,30.01,10.0,Variable,4.6,-,N/A,,Clear,0,2013-05-07 18:53:00
2:53 PM,81.0,35.1,19,30.00,10.0,Variable,4.6,-,N/A,,Clear,0,2013-05-07 19:53:00
3:53 PM,82.0,36.0,19,29.98,10.0,South,8.1,-,N/A,,Mostly Cloudy,190,2013-05-07 20:53:00
4:53 PM,82.0,35.1,18,29.98,10.0,West,5.8,-,N/A,,Mostly Cloudy,270,2013-05-07 21:53:00
5:53 PM,80.1,37.9,22,29.98,10.0,WSW,6.9,-,N/A,,Mostly Cloudy,250,2013-05-07 22:53:00
6:53 PM,77.0,39.9,26,29.97,10.0,SSW,5.8,-,N/A,,Clear,210,2013-05-07 23:53:00
7:53 PM,73.9,39.9,29,29.97,10.0,Calm,Calm,-,N/A,,Clear,0,2013-05-08 00:53:00
8:53 PM,64.0,44.1,48,29.98,10.0,Calm,Calm,-,N/A,,Clear,0,2013-05-08 01:53:00
9:53 PM,60.1,45.0,57,29.99,10.0,Calm,Calm,-,N/A,,Clear,0,2013-05-08 02:53:00
10:53 PM,55.0,46.9,74,30.00,10.0,Calm,Calm,-,N/A,,Clear,0,2013-05-08 03:53:00
11:53 PM,52.0,46.0,80,30.00,10.0,Calm,Calm,-,N/A,,Clear,0,2013-05-08 04:53:00